When you browse on this site, cookies collect data to enhance your experience and personalize the content and advertising you see.
Visit our Privacy Policy to learn more. By continuing to use the site, you agree to this use of cookies and data.
  • In France
  • List of Countries
  • For 7 days
  • Water Temperature
  • Weather Map
  • Weather Widgets
  • user-avatar
    Login

    Hourly Weather Beznik

    Today, 25 February, Tuesday

    Time Temperature Precipitation Wind Pressure Humidity
    00:00 +1°C° 0.3 mm 4 mps 741 mmHg 88%
    01:00 0°C° 0.3 mm 5 mps 740 mmHg 92%
    02:00 0°C° 1.5 mm 5 mps 739 mmHg 93%
    03:00 -1°C° 1.5 mm 6 mps 738 mmHg 94%
    04:00 -1°C° 1.5 mm 6 mps 737 mmHg 94%
    05:00 +2°C° 0.5 mm 6 mps 737 mmHg 93%
    06:00 +3°C° 0.5 mm 6 mps 736 mmHg 92%
    07:00 +4°C° 0.5 mm 6 mps 736 mmHg 92%
    08:00 +5°C° 0.2 mm 6 mps 735 mmHg 91%
    09:00 +5°C° 0.2 mm 6 mps 735 mmHg 91%
    10:00 +7°C° 0.2 mm 6 mps 735 mmHg 90%
    11:00 +7°C° 0.1 mm 6 mps 735 mmHg 88%
    12:00 +8°C° 0.1 mm 6 mps 735 mmHg 85%
    13:00 +8°C° 0.1 mm 6 mps 734 mmHg 83%
    14:00 +8°C° 0.1 mm 6 mps 734 mmHg 83%
    15:00 +8°C° 0.1 mm 6 mps 734 mmHg 83%
    16:00 +8°C° 0.1 mm 6 mps 733 mmHg 82%
    17:00 +8°C° 0.1 mm 6 mps 733 mmHg 83%
    18:00 +8°C° 0.1 mm 6 mps 733 mmHg 84%
    19:00 +7°C° 0.1 mm 6 mps 732 mmHg 85%
    20:00 +7°C° 0.6 mm 6 mps 732 mmHg 86%
    21:00 +5°C° 0.6 mm 6 mps 732 mmHg 87%
    22:00 +5°C° 0.6 mm 6 mps 732 mmHg 87%
    23:00 +5°C° 0.2 mm 5 mps 732 mmHg 84%

    Tomorrow, 26 February, Wednesday

    Time Temperature Precipitation Wind Pressure Humidity
    00:00 +5°C° 0.2 mm 4 mps 732 mmHg 81%
    01:00 +4°C° 0.2 mm 3 mps 732 mmHg 78%
    02:00 +4°C° 0 mm 3 mps 732 mmHg 79%
    03:00 +3°C° 0 mm 3 mps 732 mmHg 81%
    04:00 +3°C° 0 mm 3 mps 731 mmHg 82%
    05:00 +2°C° 0 mm 3 mps 731 mmHg 83%
    06:00 +2°C° 0 mm 3 mps 730 mmHg 85%
    07:00 +3°C° 0 mm 2 mps 730 mmHg 86%
    08:00 +3°C° 0 mm 3 mps 730 mmHg 80%
    09:00 +4°C° 0 mm 3 mps 730 mmHg 73%
    10:00 +5°C° 0 mm 4 mps 729 mmHg 67%
    11:00 +5°C° 0 mm 4 mps 729 mmHg 66%
    12:00 +6°C° 0 mm 4 mps 729 mmHg 64%
    13:00 +6°C° 0 mm 4 mps 729 mmHg 63%
    14:00 +6°C° 0.1 mm 4 mps 729 mmHg 65%
    15:00 +6°C° 0.1 mm 4 mps 729 mmHg 66%
    16:00 +5°C° 0.1 mm 4 mps 729 mmHg 67%
    17:00 +3°C° 0.1 mm 5 mps 730 mmHg 70%
    18:00 +2°C° 0.1 mm 5 mps 730 mmHg 72%
    19:00 +1°C° 0.1 mm 6 mps 730 mmHg 75%
    20:00 0°C° 0 mm 5 mps 731 mmHg 74%
    21:00 0°C° 0 mm 4 mps 731 mmHg 74%
    22:00 +1°C° 0 mm 3 mps 731 mmHg 74%
    23:00 -1°C° 0 mm 4 mps 731 mmHg 75%

    Day after tomorrow, 27 February, Thursday

    Time Temperature Precipitation Wind Pressure Humidity
    00:00 -1°C° 0 mm 4 mps 732 mmHg 76%
    01:00 -1°C° 0 mm 4 mps 732 mmHg 77%
    02:00 -1°C° 0.1 mm 5 mps 732 mmHg 81%
    03:00 -1°C° 0.1 mm 5 mps 732 mmHg 84%
    04:00 -2°C° 0.1 mm 6 mps 732 mmHg 88%
    05:00 -2°C° 0 mm 6 mps 733 mmHg 85%
    06:00 -2°C° 0 mm 6 mps 733 mmHg 83%
    07:00 -2°C° 0 mm 6 mps 733 mmHg 80%
    08:00 -2°C° 0 mm 7 mps 734 mmHg 77%
    09:00 -2°C° 0 mm 7 mps 734 mmHg 75%
    10:00 -2°C° 0 mm 7 mps 735 mmHg 72%
    11:00 -1°C° 0 mm 7 mps 735 mmHg 71%
    12:00 -1°C° 0 mm 7 mps 735 mmHg 69%
    13:00 -1°C° 0 mm 7 mps 735 mmHg 68%
    14:00 -1°C° 0 mm 6 mps 735 mmHg 67%
    15:00 -1°C° 0 mm 6 mps 735 mmHg 66%
    16:00 -1°C° 0 mm 6 mps 735 mmHg 65%
    17:00 0°C° 0 mm 4 mps 735 mmHg 69%
    18:00 0°C° 0 mm 3 mps 735 mmHg 73%
    19:00 -1°C° 0 mm 2 mps 735 mmHg 77%
    20:00 -1°C° 0 mm 2 mps 735 mmHg 80%
    21:00 -1°C° 0 mm 2 mps 735 mmHg 82%
    22:00 -1°C° 0 mm 2 mps 735 mmHg 85%
    23:00 -1°C° 0 mm 2 mps 735 mmHg 85%

    28 February, Friday

    Time Temperature Precipitation Wind Pressure Humidity
    00:00 -1°C° 0 mm 2 mps 735 mmHg 85%
    01:00 +1°C° 0 mm 1 mps 735 mmHg 86%
    02:00 +1°C° 0 mm 1 mps 735 mmHg 86%
    03:00 +1°C° 0 mm 1 mps 735 mmHg 85%
    04:00 +1°C° 0 mm 1 mps 735 mmHg 85%
    05:00 +1°C° 0 mm 1 mps 736 mmHg 85%
    06:00 +1°C° 0 mm 1 mps 737 mmHg 85%
    07:00 +1°C° 0 mm 1 mps 737 mmHg 85%
    08:00 +1°C° 0 mm 2 mps 738 mmHg 79%
    09:00 +1°C° 0 mm 3 mps 738 mmHg 73%
    10:00 +1°C° 0 mm 4 mps 738 mmHg 67%
    11:00 +1°C° 0 mm 5 mps 739 mmHg 64%
    12:00 +2°C° 0 mm 6 mps 739 mmHg 62%
    13:00 +2°C° 0 mm 7 mps 740 mmHg 59%
    14:00 +2°C° 0.1 mm 7 mps 740 mmHg 64%
    15:00 0°C° 0.1 mm 7 mps 740 mmHg 70%
    16:00 -1°C° 0.1 mm 7 mps 741 mmHg 75%
    17:00 -2°C° 0.1 mm 6 mps 741 mmHg 77%
    18:00 -1°C° 0.1 mm 5 mps 742 mmHg 79%
    19:00 -2°C° 0.1 mm 5 mps 743 mmHg 80%
    20:00 -4°C° 0 mm 5 mps 743 mmHg 76%
    21:00 -4°C° 0 mm 5 mps 744 mmHg 73%
    22:00 -4°C° 0 mm 4 mps 744 mmHg 69%
    23:00 -4°C° 0 mm 4 mps 744 mmHg 69%

    29 February, Saturday

    Time Temperature Precipitation Wind Pressure Humidity
    00:00 -4°C° 0 mm 4 mps 744 mmHg 69%
    01:00 -4°C° 0 mm 3 mps 744 mmHg 69%
    02:00 -4°C° 0 mm 3 mps 744 mmHg 73%
    03:00 -4°C° 0 mm 3 mps 744 mmHg 77%
    04:00 -4°C° 0 mm 3 mps 744 mmHg 81%
    05:00 -2°C° 0 mm 3 mps 744 mmHg 82%
    06:00 -2°C° 0 mm 3 mps 744 mmHg 82%
    07:00 -2°C° 0 mm 2 mps 744 mmHg 83%
    08:00 -1°C° 0 mm 2 mps 743 mmHg 76%
    09:00 +1°C° 0 mm 2 mps 743 mmHg 69%
    10:00 +2°C° 0 mm 2 mps 743 mmHg 63%
    11:00 +2°C° 0 mm 3 mps 742 mmHg 59%
    12:00 +3°C° 0 mm 4 mps 741 mmHg 56%
    13:00 +4°C° 0 mm 4 mps 740 mmHg 53%
    14:00 +3°C° 0 mm 4 mps 740 mmHg 55%
    15:00 +3°C° 0 mm 4 mps 739 mmHg 57%
    16:00 +3°C° 0 mm 4 mps 738 mmHg 60%
    17:00 +1°C° 0 mm 4 mps 737 mmHg 64%
    18:00 +1°C° 0 mm 4 mps 736 mmHg 69%
    19:00 0°C° 0 mm 5 mps 736 mmHg 74%
    20:00 +1°C° 0.2 mm 5 mps 735 mmHg 78%
    21:00 +1°C° 0.2 mm 6 mps 735 mmHg 81%
    22:00 +1°C° 0.2 mm 6 mps 734 mmHg 85%
    23:00 +2°C° 0.5 mm 6 mps 734 mmHg 87%

    1 March, Sunday

    Time Temperature Precipitation Wind Pressure Humidity
    00:00 +2°C° 0.5 mm 6 mps 734 mmHg 88%
    01:00 +2°C° 0.5 mm 7 mps 734 mmHg 90%
    02:00 +2°C° 0.1 mm 5 mps 734 mmHg 90%
    03:00 +3°C° 0.1 mm 4 mps 735 mmHg 91%
    04:00 +2°C° 0.1 mm 3 mps 735 mmHg 92%
    05:00 +2°C° 0 mm 3 mps 735 mmHg 91%
    06:00 +1°C° 0 mm 4 mps 735 mmHg 91%
    07:00 +1°C° 0 mm 4 mps 735 mmHg 91%
    08:00 +2°C° 0 mm 5 mps 735 mmHg 82%
    09:00 +3°C° 0 mm 6 mps 734 mmHg 73%
    10:00 +5°C° 0 mm 8 mps 734 mmHg 65%
    11:00 +4°C° 0.3 mm 8 mps 734 mmHg 67%
    12:00 +4°C° 0.3 mm 7 mps 735 mmHg 70%
    13:00 +3°C° 0.3 mm 7 mps 735 mmHg 73%
    14:00 +3°C° 0 mm 6 mps 735 mmHg 67%
    15:00 +4°C° 0 mm 6 mps 735 mmHg 60%
    16:00 +5°C° 0 mm 5 mps 736 mmHg 54%
    17:00 +4°C° 0 mm 4 mps 736 mmHg 59%
    18:00 +3°C° 0 mm 3 mps 737 mmHg 63%
    19:00 +2°C° 0 mm 3 mps 737 mmHg 68%
    20:00 +2°C° 0 mm 3 mps 738 mmHg 70%
    21:00 +1°C° 0 mm 3 mps 738 mmHg 72%
    22:00 +1°C° 0 mm 3 mps 739 mmHg 74%
    23:00 +2°C° 0 mm 2 mps 739 mmHg 76%
    Show more